Midland, VA

8:58 PM EDT on August 24, 2016 (GMT -0400)
Warrenton

Weather History for KHWY - December, 2012

Change the Weather History Date:

Thursday, December 27, 2012

  Actual Average (KHEF) Record (KHEF)
Temperature  
Mean Temperature 38 °F -  
Max Temperature 45 °F 41 °F 71 °F (2015)
Min Temperature 31 °F 22 °F 12 °F (1998)
Degree Days  
Heating Degree Days 27    
Moisture  
Dew Point 33 °F    
Average Humidity 82    
Maximum Humidity 100    
Minimum Humidity 61    
Precipitation  
Precipitation 0.01 in - - ()
Sea Level Pressure  
Sea Level Pressure 29.78 in    
Wind  
Wind Speed 10 mph (NW)    
Max Wind Speed 21 mph    
Max Gust Speed 29 mph    
Visibility 10 miles    
Events Rain    
Averages and records for this station are not official NWS values.
T = Trace of Precipitation, MM = Missing Value Source: NWS Daily Summary

Daily Weather History Graph

Daily Weather History Graph

Search for Another Location

Airport or City:

Trip Planner

Search our weather history database for the weather conditions in past years. The results will help you decide how hot, cold, wet, or windy it might be!

Date:

Astronomy

Dec. 27, 2012 Rise Set
Actual Time 7:27 AM EST 4:56 PM EST
Civil Twilight 6:57 AM EST 5:26 PM EST
Nautical Twilight 6:24 AM EST 6:00 PM EST
Astronomical Twilight 5:52 AM EST 6:32 PM EST
Moon 4:38 PM EST (12/27) 6:37 AM EST (12/27)
Length of Visible Light 10h 28m
Length of Day
9h 29m
Full, 100% of the Moon is Illuminated
Dec 27
Full
Dec 28
Full
Jan 4
Last Quarter
Jan 11
New
Jan 18
First Quarter

Hourly Weather History & Observations

Time (EST) Temp. Windchill Dew Point Humidity Pressure Visibility Wind Dir Wind Speed Gust Speed Precip Events Conditions
12:15 AM 37.0 °F 28.5 °F 37.0 °F 100% 29.46 in 10.0 mi WNW 13.8 mph 20.7 mph N/A Rain Rain
12:35 AM 36.7 °F 28.4 °F 36.7 °F 100% 29.45 in 10.0 mi WNW 12.7 mph - N/A   Overcast
12:55 AM 36.9 °F 29.1 °F 36.9 °F 100% 29.46 in 10.0 mi NW 11.5 mph - N/A   Overcast
1:15 AM 36.9 °F 29.6 °F 36.5 °F 99% 29.47 in 10.0 mi WNW 10.4 mph 16.1 mph N/A   Mostly Cloudy
1:35 AM 36.7 °F 28.4 °F 35.6 °F 96% 29.48 in 10.0 mi NW 12.7 mph 19.6 mph N/A   Scattered Clouds
1:55 AM 36.9 °F 29.1 °F 35.6 °F 95% 29.49 in 10.0 mi WNW 11.5 mph - N/A   Scattered Clouds
2:15 AM 37.0 °F 30.4 °F 35.6 °F 95% 29.50 in 10.0 mi NW 9.2 mph - N/A   Overcast
2:35 AM 36.9 °F 30.7 °F 35.6 °F 95% 29.50 in 10.0 mi NW 8.1 mph - N/A   Scattered Clouds
2:55 AM 36.7 °F 29.4 °F 35.6 °F 96% 29.51 in 10.0 mi NW 10.4 mph - N/A   Scattered Clouds
3:15 AM 36.9 °F 30.1 °F 35.6 °F 95% 29.52 in 10.0 mi NW 9.2 mph - N/A   Scattered Clouds
3:35 AM 36.5 °F 31.8 °F 35.6 °F 97% 29.53 in 10.0 mi NNW 5.8 mph - N/A   Scattered Clouds
3:55 AM 37.2 °F 33.6 °F 36.0 °F 95% 29.53 in 10.0 mi NW 4.6 mph - N/A   Scattered Clouds
4:15 AM 37.4 °F - 36.1 °F 95% 29.54 in 10.0 mi Calm Calm - N/A   Overcast
4:35 AM 37.6 °F 35.1 °F 36.3 °F 95% 29.55 in 10.0 mi WNW 3.5 mph - N/A   Overcast
4:55 AM 36.0 °F - 35.8 °F 99% 29.55 in 10.0 mi Calm Calm - N/A   Mostly Cloudy
5:35 AM 37.4 °F 33.8 °F 36.0 °F 95% 29.58 in 10.0 mi WNW 4.6 mph - N/A   Mostly Cloudy
5:55 AM 35.4 °F - 34.5 °F 97% 29.59 in 10.0 mi Calm Calm - N/A   Scattered Clouds
6:15 AM 36.3 °F - 35.8 °F 98% 29.60 in 10.0 mi Calm Calm - N/A   Scattered Clouds
6:55 AM 38.1 °F - 35.6 °F 91% 29.63 in 10.0 mi Calm Calm - N/A   Overcast
7:15 AM 39.7 °F 34.9 °F 34.9 °F 83% 29.65 in 10.0 mi WNW 6.9 mph - N/A   Overcast
7:35 AM 39.4 °F 36.1 °F 34.7 °F 83% 29.67 in 10.0 mi NW 4.6 mph - N/A   Overcast
7:55 AM 39.7 °F 33.2 °F 34.7 °F 82% 29.69 in 10.0 mi WNW 10.4 mph - N/A   Overcast
8:35 AM 41.0 °F 33.5 °F 33.4 °F 74% 29.71 in 10.0 mi WNW 13.8 mph - N/A   Overcast
8:55 AM 41.2 °F 33.7 °F 32.5 °F 71% 29.72 in 10.0 mi WNW 13.8 mph 26.5 mph N/A   Mostly Cloudy
9:15 AM 40.5 °F 35.1 °F 32.9 °F 74% 29.74 in 10.0 mi WNW 8.1 mph - N/A   Overcast
9:55 AM 41.5 °F 34.6 °F 33.3 °F 72% 29.76 in 10.0 mi WNW 12.7 mph - N/A   Mostly Cloudy
10:15 AM 43.0 °F 36.4 °F 33.3 °F 69% 29.77 in 10.0 mi WNW 12.7 mph 20.7 mph N/A   Overcast
10:35 AM 43.3 °F 36.1 °F 33.1 °F 67% 29.79 in 10.0 mi WNW 15.0 mph - N/A   Overcast
10:55 AM 45.5 °F 38.9 °F 32.7 °F 61% 29.79 in 10.0 mi West 15.0 mph 19.6 mph N/A   Overcast
11:15 AM 42.1 °F 33.9 °F 31.8 °F 67% 29.79 in 10.0 mi NW 17.3 mph 27.6 mph N/A   Mostly Cloudy
11:35 AM 44.1 °F 35.9 °F 32.9 °F 65% 29.80 in 10.0 mi WNW 19.6 mph 28.8 mph N/A   Scattered Clouds
11:55 AM 42.8 °F 34.8 °F 32.0 °F 66% 29.80 in 10.0 mi NW 17.3 mph 27.6 mph N/A   Overcast
12:15 PM 42.6 °F 34.0 °F 32.2 °F 67% 29.81 in 10.0 mi NW 19.6 mph 28.8 mph N/A   Overcast
12:35 PM 41.9 °F 32.8 °F 32.0 °F 68% 29.81 in 10.0 mi NNW 20.7 mph 25.3 mph N/A   Overcast
12:55 PM 41.9 °F 34.6 °F 32.5 °F 69% 29.81 in 10.0 mi NW 13.8 mph 19.6 mph N/A   Overcast
1:15 PM 42.1 °F 33.1 °F 32.0 °F 67% 29.81 in 10.0 mi NW 20.7 mph 28.8 mph N/A   Scattered Clouds
1:35 PM 43.3 °F 35.8 °F 32.0 °F 64% 29.82 in 10.0 mi NW 16.1 mph 27.6 mph N/A   Scattered Clouds
1:55 PM 43.5 °F 36.1 °F 32.0 °F 64% 29.83 in 10.0 mi NW 16.1 mph 24.2 mph N/A   Scattered Clouds
2:15 PM 42.3 °F 34.1 °F 31.8 °F 67% 29.85 in 10.0 mi NW 17.3 mph 27.6 mph N/A   Mostly Cloudy
2:35 PM 43.0 °F 35.1 °F 32.0 °F 65% 29.85 in 10.0 mi NNW 17.3 mph 23.0 mph N/A   Scattered Clouds
2:55 PM 43.2 °F 37.0 °F 32.0 °F 65% 29.87 in 10.0 mi NW 11.5 mph - N/A   Mostly Cloudy
3:15 PM 43.0 °F 37.2 °F 32.0 °F 65% 29.87 in 10.0 mi NW 10.4 mph 17.3 mph N/A   Scattered Clouds
3:35 PM 42.3 °F 36.3 °F 32.0 °F 67% 29.88 in 10.0 mi NNW 10.4 mph - N/A   Scattered Clouds
3:55 PM 41.9 °F 34.6 °F 31.3 °F 66% 29.89 in 10.0 mi NW 13.8 mph 17.3 mph N/A   Mostly Cloudy
4:15 PM 41.0 °F 33.9 °F 30.6 °F 66% 29.90 in 10.0 mi WNW 12.7 mph - N/A   Scattered Clouds
4:35 PM 40.3 °F 33.0 °F 30.4 °F 68% 29.92 in 10.0 mi WNW 12.7 mph 20.7 mph N/A   Mostly Cloudy
4:55 PM 40.1 °F 34.7 °F 30.9 °F 70% 29.92 in 10.0 mi West 8.1 mph - N/A   Overcast
5:15 PM 39.7 °F 34.3 °F 30.4 °F 69% 29.94 in 10.0 mi WNW 8.1 mph 21.9 mph N/A   Overcast
5:35 PM 39.2 °F 35.0 °F 30.4 °F 71% 29.95 in 10.0 mi WNW 5.8 mph - N/A   Overcast
5:55 PM 38.1 °F 34.6 °F 30.4 °F 74% 29.95 in 10.0 mi West 4.6 mph - N/A   Overcast
6:15 PM 36.0 °F 31.1 °F 30.0 °F 79% 29.95 in 10.0 mi West 5.8 mph - N/A   Scattered Clouds
6:35 PM 36.0 °F 30.3 °F 30.0 °F 79% 29.95 in 10.0 mi WNW 6.9 mph - N/A   Clear
6:55 PM 34.9 °F 29.0 °F 30.0 °F 82% 29.96 in 10.0 mi WNW 6.9 mph - N/A   Clear
7:15 PM 35.4 °F 29.7 °F 30.2 °F 81% 29.96 in 10.0 mi WNW 6.9 mph - N/A   Clear
7:35 PM 34.3 °F 29.2 °F 30.0 °F 84% 29.97 in 10.0 mi WNW 5.8 mph - N/A   Clear
7:55 PM 33.1 °F - 29.3 °F 86% 29.97 in 10.0 mi Calm Calm - N/A   Clear
8:15 PM 32.2 °F - 28.8 °F 87% 29.98 in 10.0 mi Calm Calm - N/A   Clear
8:35 PM 31.6 °F - 28.9 °F 90% 29.99 in 10.0 mi Calm Calm - N/A   Scattered Clouds
8:55 PM 31.1 °F - 29.1 °F 92% 30.00 in 10.0 mi Calm Calm - N/A   Mostly Cloudy
9:15 PM 32.0 °F 28.7 °F 29.1 °F 89% 30.00 in 10.0 mi NW 3.5 mph - N/A   Scattered Clouds
9:35 PM 31.1 °F - 28.6 °F 90% 30.00 in 10.0 mi Calm Calm - N/A   Clear
9:55 PM 32.0 °F - 30.2 °F 93% 30.02 in 10.0 mi Calm Calm - N/A   Mostly Cloudy
10:15 PM 34.5 °F 30.4 °F 30.7 °F 86% 30.03 in 10.0 mi NW 4.6 mph - N/A   Mostly Cloudy
10:35 PM 33.1 °F - 30.6 °F 90% 30.03 in 10.0 mi Calm Calm - N/A   Overcast
10:55 PM 33.1 °F - 31.1 °F 92% 30.03 in 10.0 mi Calm Calm - N/A   Overcast
11:15 PM 32.2 °F 27.7 °F 31.5 °F 97% 30.03 in 10.0 mi WNW 4.6 mph - N/A   Overcast
11:35 PM 32.7 °F - 31.1 °F 94% 30.04 in 10.0 mi Calm Calm - N/A   Overcast
11:55 PM 32.0 °F 26.4 °F 31.1 °F 96% 30.03 in 10.0 mi WSW 5.8 mph - N/A   Overcast